SCP
0 0 0 0 0 0 0 0 0 0 0 -0 0 0 0 0 0 0 0 0 0 0 0 0 0 0 0 0 -0 -0 0 0 0 0 0 0 0 0 0 0 0 0 0 0
0 0 0 0 0 0 0 0 0 0 0 0 0 0 0 0 0 0 0 0 0 0 0 0 0 0 0 0 0 0 0 0 0 0 0 0 0 0 0 0 0 0 0 0
0 0 0 0 0 0 0 1 0 0 0 0 0 0 0 0 0 0 0 0 0 0 0 0 0 0 0 0 0 0 0 0 0 0 0 0 0 0 -0 0 0 0 0 0
0 0 0 0 0 0 0 1 0 0 0 0 0 0 0 0 0 0 0 0 0 0 0 0 0 0 0 0 0 0 0 0 0 0 0 0 0 0 0 -0 -0 0 0 0
0 0 0 0 0 0 0 0 0 0 0 0 0 0 0 0 0 0 0 0 0 0 0 0 0 0 0 0 0 0 0 0 0 0 0 0 0 -0 0 0 0 0 0 -0
0 0 0 0 0 0 0 0 0 0 0 0 0 0 0 0 0 0 0 0 0 0 0 0 0 0 0 0 0 0 0 0 0 0 0 0 0 0 0 0 0 0 0 0
0 0 0 0 0 0 0 0 0 0 0 0 0 0 0 0 0 0 0 0 0 0 0 0 0 0 0 0 0 0 0 0 0 0 0 0 0 0 0 0 0 0 0 0
0 0 0 0 0 0 0 0 0 0 0 0 0 0 0 0 0 0 0 0 0 0 0 0 0 0 0 0 0 0 0 0 0 0 0 0 0 0 0 0 0 0 0 0
0 0 0 0 0 0 0 0 0 0 0 0 0 0 0 0 0 0 0 0 0 0 0 0 0 0 0 0 0 0 0 0 0 0 0 0 0 0 0 0 0 0 0 0
0 0 0 0 0 0 0 0 0 0 0 0 0 0 0 0 0 0 0 0 0 0 0 0 0 0 0 0 0 0 0 0 0 0 0 0 0 0 0 0 0 0 0 0
0 0 0 0 0 -0 0 0 0 0 0 0 0 0 0 0 0 0 0 0 0 0 0 0 0 0 0 0 0 0 0 0 0 0 0 0 0 0 0 0 0 0 0 0
0 0 0 0 0 0 0 0 0 0 0 0 0 0 0 0 0 0 0 0 0 0 0 0 0 0 0 0 0 0 0 0 0 0 0 0 0 0 0 0 0 0 0 0
0 0 0 0 0 0 0 0 0 0 0 0 0 0 0 0 0 0 0 0 0 0 0 0 0 0 0 0 0 0 0 0 0 0 0 0 0 0 0 0 0 0 0 0
0 0 0 0 0 0 0 0 0 0 0 0 0 0 0 0 0 0 0 0 0 0 0 0 0 0 0 0 0 0 0 0 0 0 0 0 0 0 0 0 0 0 0 0
0 0 0 0 0 0 0 0 0 0 0 0 0 0 0 0 0 0 0 0 0 0 0 0 0 0 0 0 0 0 0 0 0 0 0 0 0 0 0 0 0 0 0 0
0 0 0 0 0 0 0 0 0 0 0 0 0 0 0 0 0 0 0 0 0 0 0 0 0 0 0 0 0 0 0 0 0 0 0 0 0 0 0 0 0 0 -0 -0
0 0 0 0 0 0 0 0 0 0 0 0 0 0 0 0 0 0 0 0 0 0 0 0 0 0 0 0 0 0 0 0 0 0 0 0 0 0 -0 -0 -0 -0 -0 -0
0 0 0 0 0 0 0 0 0 0 0 0 0 0 0 0 0 0 0 0 0 0 0 0 0 0 0 0 0 0 0 0 0 0 0 0 -0 -0 -0 -0 -0 -0 -0 -0
0 0 -0 0 0 0 0 0 0 0 0 0 0 0 0 0 0 0 0 0 0 0 0 0 0 0 0 0 0 0 0 0 0 0 0 0 0 -0 -0 -0 -0 -0 -0 -0
0 0 0 0 0 0 0 0 0 0 0 0 0 0 0 0 0 0 0 0 0 0 0 0 0 0 0 0 0 0 0 0 0 0 0 0 -0 -0 -0 -0 -0 -0 -0 -0
0 0 0 0 0 0 0 0 0 0 0 0 0 0 0 0 0 0 0 0 0 0 0 0 0 0 0 0 0 0 0 0 0 0 0 0 0 0 0 0 0 0 0 0
0 0 0 0 0 0 0 0 0 0 0 0 0 0 0 0 0 0 0 0 0 0 0 0 0 0 0 0 0 0 0 0 0 0 0 0 0 0 0 0 0 0 0 0
0 0 0 0 0 0 0 0 0 0 0 0 0 0 0 0 0 0 0 0 0 0 0 0 0 0 0 0 0 0 0 0 0 0 0 0 0 0 0 0 0 0 0 0
0 0 0 0 0 0 0 0 0 0 0 0 0 0 0 0 0 0 0 0 0 0 0 0 0 0 0 0 0 0 0 0 0 0 0 0 0 0 0 0 0 0 0 0
0 0 0 0 0 0 0 0 0 0 0 0 0 0 0 0 0 0 0 0 0 0 0 0 0 0 0 0 0 0 0 0 0 0 0 0 0 0 0 0 0 0 0 0
0 0 0 0 0 0 0 0 0 0 0 0 0 0 0 0 0 0 0 0 0 0 0 0 0 0 0 0 0 0 0 0 0 0 0 0 0 0 0 0 0 0 0 0
0 0 0 0 0 0 0 0 0 0 0 0 0 0 0 0 0 0 0 0 0 0 0 0 0 0 0 0 0 0 0 0 0 0 0 0 0 0 0 0 0 0 0 0
Wind_Speed_500mb
7 4 4 6 8 10 8 10 13 21 37 39 30 24 29 31 34 37 29 29 32 29 31 29 38 29 33 33 18 40 48 37 39 25 16 24 40 49 45 45 42 41 37 37
7 20 13 9 24 12 7 15 13 37 17 14 36 42 39 36 36 46 40 37 35 35 32 34 29 26 25 26 28 30 34 48 47 52 46 40 29 27 23 42 40 38 45 44
4 10 6 14 20 10 7 3 44 30 15 41 30 39 44 52 48 51 49 48 47 47 44 41 37 32 27 24 20 17 17 18 27 31 28 12 36 47 40 30 24 30 42 45
8 7 8 11 11 12 15 13 6 28 40 39 43 40 39 48 64 61 58 47 40 46 48 46 40 39 36 34 36 34 30 26 21 19 29 22 22 32 37 41 40 34 38 43
7 8 7 10 7 9 2 9 10 34 38 50 50 52 35 53 60 62 56 50 43 42 39 39 37 34 30 30 25 22 22 19 14 9 18 33 22 12 23 37 38 30 32 39
4 7 12 10 11 23 7 5 14 53 56 59 64 17 16 63 60 56 53 47 43 38 36 28 27 20 15 18 15 17 17 15 13 11 8 4 12 14 8 8 8 25 41 36
2 3 4 7 30 16 4 11 32 38 40 58 21 20 64 67 60 54 49 48 40 29 28 22 15 8 4 2 1 2 2 1 2 4 4 3 3 5 3 3 5 4 8 5
3 6 2 21 15 5 5 30 67 53 57 45 35 62 70 65 63 58 52 42 32 25 17 12 6 4 6 8 10 12 13 14 14 14 13 12 12 11 10 9 8 7 6 8
8 9 10 12 5 7 12 38 55 73 62 56 61 86 72 66 61 51 44 36 26 18 15 7 6 12 12 6 8 12 14 16 17 17 17 16 16 17 16 17 18 16 14 14
7 7 5 19 26 21 16 43 52 64 60 59 82 80 68 60 55 49 41 36 28 18 12 9 8 8 8 7 5 3 6 9 10 11 13 15 16 18 17 18 18 21 24 26
3 3 6 13 32 31 32 30 39 42 53 72 76 72 67 61 55 46 38 29 21 15 12 9 7 4 1 1 3 2 4 4 3 4 6 8 11 15 19 23 26 27 29 34
9 3 4 9 31 37 34 39 38 44 55 66 72 71 67 60 50 41 32 23 17 15 11 8 5 3 5 6 8 9 9 9 8 7 5 2 2 5 12 16 22 28 34 41
4 4 4 10 30 34 35 41 47 46 50 64 67 61 58 53 44 32 21 17 14 13 11 8 7 7 10 12 11 9 7 10 12 13 13 13 14 13 11 7 14 20 25 29
6 8 8 4 8 24 41 43 42 37 39 46 53 52 47 41 34 23 17 15 14 14 12 9 11 15 17 15 11 10 9 10 12 16 20 23 26 28 30 33 31 26 25 31
14 14 15 12 9 16 31 51 54 51 51 53 51 50 46 40 30 24 21 17 13 10 11 11 15 17 16 15 11 8 8 10 14 17 21 25 28 31 35 38 41 45 46 43
10 11 9 10 11 6 34 48 54 53 54 52 51 49 44 34 27 28 29 25 17 8 11 12 14 16 17 15 10 3 6 10 15 18 22 25 30 35 39 44 48 52 56 60
25 22 19 18 15 13 18 35 33 27 36 49 57 46 44 45 42 41 40 34 25 16 9 9 12 14 20 16 15 6 1 10 14 16 20 24 29 35 41 46 50 53 57 59
17 13 7 10 14 21 24 24 27 31 16 13 16 22 49 60 58 50 51 45 39 30 24 13 15 14 19 21 18 11 5 9 15 14 19 22 28 36 42 46 50 56 61 63
15 9 4 4 13 14 12 15 20 28 34 40 48 26 8 7 33 55 62 58 53 48 36 32 28 24 26 26 21 14 12 10 12 14 15 20 26 34 41 46 50 55 62 67
17 13 7 3 3 5 6 11 13 17 19 23 33 51 46 52 38 46 46 54 56 61 49 43 41 36 32 33 28 21 18 14 16 17 17 21 26 32 38 44 49 55 62 67
16 12 12 11 10 11 14 16 17 25 28 28 25 31 41 46 47 46 57 66 63 60 74 59 52 43 34 39 35 27 23 18 16 19 26 29 30 33 39 44 51 57 63 69
15 16 19 21 16 17 14 14 18 19 25 32 38 30 33 38 41 47 54 61 58 61 61 71 64 53 42 39 41 34 30 24 20 22 26 28 31 35 41 48 51 54 62 65
25 17 17 23 18 13 10 13 14 18 23 25 29 31 35 39 42 50 58 56 52 54 65 70 70 68 53 46 40 38 38 32 30 30 33 36 37 38 42 47 50 52 58 60
29 19 14 15 16 15 15 15 19 24 31 36 42 44 46 50 51 50 44 44 49 53 59 66 65 75 60 49 43 40 36 35 35 36 38 39 42 40 42 44 47 49 55 57
17 14 17 20 19 17 18 18 26 33 37 35 33 34 40 48 53 48 43 43 38 38 42 50 59 67 59 55 45 37 31 31 36 39 40 39 42 41 39 41 44 49 54 55
19 13 17 22 22 23 19 22 22 18 17 17 18 21 24 27 34 37 35 33 36 37 46 52 59 58 55 51 39 31 33 32 33 38 41 43 46 45 42 41 42 45 48 51
27 28 25 26 26 21 16 10 5 6 10 13 13 17 28 13 6 8 8 12 14 15 26 37 41 36 38 35 27 29 32 32 29 36 40 41 43 43 40 42 44 41 43 47
Wind_Direction_500mb
193 278 248 240 298 180 137 167 145 172 168 185 172 153 145 138 131 115 119 130 138 136 135 153 183 187 195 214 209 213 217 210 226 236 264 281 243 238 238 241 244 250 254 265
12 341 347 38 19 9 91 108 51 145 123 160 148 143 141 136 128 113 104 107 110 117 122 126 136 153 175 197 217 229 240 236 224 224 245 273 274 261 240 233 239 249 253 253
297 284 356 22 343 323 10 282 139 157 181 154 146 152 155 143 136 129 122 115 110 108 106 106 117 127 138 154 162 180 210 221 226 223 212 262 264 261 272 254 261 257 254 256
205 354 50 258 322 53 76 37 86 115 145 149 151 153 154 145 137 132 132 125 123 122 116 110 111 112 117 118 121 125 125 137 174 185 185 217 244 237 241 267 275 280 265 253
107 90 297 316 2 17 44 355 161 131 142 148 135 122 122 145 144 137 131 129 123 129 133 124 116 110 110 112 112 112 105 106 127 152 206 224 248 259 247 254 278 279 273 276
106 123 169 276 289 14 118 58 152 152 152 144 144 147 162 153 146 139 140 138 135 132 132 137 126 122 117 108 109 108 101 95 105 122 132 139 214 231 249 262 268 274 260 270
80 149 303 264 308 321 121 229 172 167 162 156 155 149 153 153 150 151 146 145 146 146 144 148 147 159 153 148 305 44 74 109 235 239 226 200 184 191 249 231 164 136 139 105
68 82 218 343 329 197 255 157 166 171 164 160 144 153 151 153 154 154 152 155 163 166 158 146 168 228 239 266 285 285 281 277 271 266 269 266 257 261 261 262 247 200 156 205
157 208 265 341 18 314 208 161 156 163 167 163 154 157 161 156 155 158 164 166 171 185 175 185 272 306 313 289 251 268 278 276 270 269 267 267 267 258 254 252 257 261 254 252
65 323 352 81 76 57 144 159 164 161 161 166 160 163 162 161 163 165 166 168 171 183 198 236 273 287 294 311 321 300 230 238 253 256 262 264 267 270 272 269 265 272 278 276
345 294 112 129 112 104 109 131 145 157 165 166 165 165 168 168 166 168 172 177 192 216 231 216 212 229 218 74 70 103 118 124 171 210 247 270 274 267 271 280 285 287 291 294
215 193 216 175 155 142 138 142 148 160 171 177 178 174 173 171 175 178 182 195 216 225 214 194 186 168 156 148 134 120 106 96 81 60 50 18 297 299 302 292 288 285 286 286
141 1 278 298 189 174 168 163 166 170 173 173 177 180 179 177 177 177 189 203 203 192 189 187 178 166 145 135 124 110 79 55 40 30 22 13 1 347 325 320 306 296 292 290
283 298 243 359 184 194 189 177 178 182 187 193 191 186 187 184 180 190 190 181 186 184 183 183 180 169 159 147 120 99 80 57 40 29 21 16 11 5 358 351 344 333 322 311
264 264 261 264 278 236 206 184 176 176 180 182 187 188 192 194 204 203 186 178 175 190 196 189 183 183 178 167 142 104 75 46 35 28 20 15 10 6 1 357 351 346 341 335
242 253 269 257 239 278 206 190 183 180 185 188 190 196 203 210 202 203 200 201 211 221 216 217 204 204 198 186 174 133 34 18 11 6 5 2 0 360 358 357 354 351 348 343
228 235 254 255 228 208 199 183 188 189 200 200 201 208 210 211 207 209 215 222 226 227 220 241 221 218 210 201 198 209 3 6 355 355 356 355 356 355 353 350 348 348 346 344
236 233 250 242 204 194 195 213 223 214 172 155 181 213 222 217 215 218 224 223 218 219 227 230 220 230 225 210 200 216 238 338 345 342 348 348 350 352 351 351 350 348 346 344
155 175 196 214 201 201 190 191 206 215 224 236 225 201 198 200 222 228 224 222 222 220 231 227 227 223 225 224 212 217 227 259 322 323 333 344 345 345 348 350 350 348 348 346
182 184 197 233 215 185 198 200 209 222 234 244 248 234 243 249 233 258 244 240 239 252 253 239 227 225 226 225 224 229 234 252 277 302 299 322 336 341 342 342 343 345 344 342
211 213 234 242 247 251 268 248 280 250 252 257 266 249 246 250 248 247 239 242 247 251 245 240 229 227 226 223 226 226 230 244 269 297 306 300 315 327 331 333 335 339 339 338
213 229 252 242 268 272 260 263 281 282 277 278 259 259 264 263 257 252 251 254 257 245 238 239 231 226 229 222 224 227 227 241 263 285 298 304 303 314 319 322 325 329 335 335
244 246 237 238 245 251 256 271 266 268 267 277 275 276 272 274 270 268 266 264 261 245 238 237 231 228 227 221 225 230 231 244 260 277 290 295 302 308 311 313 317 321 329 331
232 233 229 226 225 235 248 271 277 280 280 276 269 266 266 266 265 269 274 274 263 261 246 240 234 223 227 221 226 230 240 250 260 275 289 292 295 303 304 309 314 314 321 327
197 215 214 220 225 245 254 271 287 291 292 290 284 280 280 268 266 268 270 271 266 255 241 235 220 214 229 222 223 229 242 258 264 273 284 290 294 300 302 302 311 317 318 320
208 223 217 223 236 252 260 289 297 300 308 311 313 309 301 285 271 266 268 268 260 257 239 241 222 209 220 220 222 239 252 259 267 269 278 285 294 296 298 303 308 313 317 319
222 219 225 227 229 236 277 284 290 343 359 0 346 343 340 322 320 313 276 281 279 240 207 208 210 206 198 206 229 244 249 265 272 280 283 285 294 292 290 298 300 302 314 319
Wind_Speed_850mb
7 4 4 6 8 10 8 10 13 21 37 39 30 24 29 31 34 37 29 29 32 29 31 29 38 29 33 33 18 40 48 37 39 25 16 24 40 49 45 45 42 41 37 37
7 20 13 9 24 12 7 15 13 37 17 14 36 42 39 36 36 46 40 37 35 35 32 34 29 26 25 26 28 30 34 48 47 52 46 40 29 27 23 42 40 38 45 44
4 10 6 14 20 10 7 3 44 30 15 41 30 39 44 52 48 51 49 48 47 47 44 41 37 32 27 24 20 17 17 18 27 31 28 12 36 47 40 30 24 30 42 45
8 7 8 11 11 12 15 13 6 28 40 39 43 40 39 48 64 61 58 47 40 46 48 46 40 39 36 34 36 34 30 26 21 19 29 22 22 32 37 41 40 34 38 43
7 8 7 10 7 9 2 9 10 34 38 50 50 52 35 53 60 62 56 50 43 42 39 39 37 34 30 30 25 22 22 19 14 9 18 33 22 12 23 37 38 30 32 39
4 7 12 10 11 23 7 5 14 53 56 59 64 17 16 63 60 56 53 47 43 38 36 28 27 20 15 18 15 17 17 15 13 11 8 4 12 14 8 8 8 25 41 36
2 3 4 7 30 16 4 11 32 38 40 58 21 20 64 67 60 54 49 48 40 29 28 22 15 8 4 2 1 2 2 1 2 4 4 3 3 5 3 3 5 4 8 5
3 6 2 21 15 5 5 30 67 53 57 45 35 62 70 65 63 58 52 42 32 25 17 12 6 4 6 8 10 12 13 14 14 14 13 12 12 11 10 9 8 7 6 8
8 9 10 12 5 7 12 38 55 73 62 56 61 86 72 66 61 51 44 36 26 18 15 7 6 12 12 6 8 12 14 16 17 17 17 16 16 17 16 17 18 16 14 14
7 7 5 19 26 21 16 43 52 64 60 59 82 80 68 60 55 49 41 36 28 18 12 9 8 8 8 7 5 3 6 9 10 11 13 15 16 18 17 18 18 21 24 26
3 3 6 13 32 31 32 30 39 42 53 72 76 72 67 61 55 46 38 29 21 15 12 9 7 4 1 1 3 2 4 4 3 4 6 8 11 15 19 23 26 27 29 34
9 3 4 9 31 37 34 39 38 44 55 66 72 71 67 60 50 41 32 23 17 15 11 8 5 3 5 6 8 9 9 9 8 7 5 2 2 5 12 16 22 28 34 41
4 4 4 10 30 34 35 41 47 46 50 64 67 61 58 53 44 32 21 17 14 13 11 8 7 7 10 12 11 9 7 10 12 13 13 13 14 13 11 7 14 20 25 29
6 8 8 4 8 24 41 43 42 37 39 46 53 52 47 41 34 23 17 15 14 14 12 9 11 15 17 15 11 10 9 10 12 16 20 23 26 28 30 33 31 26 25 31
14 14 15 12 9 16 31 51 54 51 51 53 51 50 46 40 30 24 21 17 13 10 11 11 15 17 16 15 11 8 8 10 14 17 21 25 28 31 35 38 41 45 46 43
10 11 9 10 11 6 34 48 54 53 54 52 51 49 44 34 27 28 29 25 17 8 11 12 14 16 17 15 10 3 6 10 15 18 22 25 30 35 39 44 48 52 56 60
25 22 19 18 15 13 18 35 33 27 36 49 57 46 44 45 42 41 40 34 25 16 9 9 12 14 20 16 15 6 1 10 14 16 20 24 29 35 41 46 50 53 57 59
17 13 7 10 14 21 24 24 27 31 16 13 16 22 49 60 58 50 51 45 39 30 24 13 15 14 19 21 18 11 5 9 15 14 19 22 28 36 42 46 50 56 61 63
15 9 4 4 13 14 12 15 20 28 34 40 48 26 8 7 33 55 62 58 53 48 36 32 28 24 26 26 21 14 12 10 12 14 15 20 26 34 41 46 50 55 62 67
17 13 7 3 3 5 6 11 13 17 19 23 33 51 46 52 38 46 46 54 56 61 49 43 41 36 32 33 28 21 18 14 16 17 17 21 26 32 38 44 49 55 62 67
16 12 12 11 10 11 14 16 17 25 28 28 25 31 41 46 47 46 57 66 63 60 74 59 52 43 34 39 35 27 23 18 16 19 26 29 30 33 39 44 51 57 63 69
15 16 19 21 16 17 14 14 18 19 25 32 38 30 33 38 41 47 54 61 58 61 61 71 64 53 42 39 41 34 30 24 20 22 26 28 31 35 41 48 51 54 62 65
25 17 17 23 18 13 10 13 14 18 23 25 29 31 35 39 42 50 58 56 52 54 65 70 70 68 53 46 40 38 38 32 30 30 33 36 37 38 42 47 50 52 58 60
29 19 14 15 16 15 15 15 19 24 31 36 42 44 46 50 51 50 44 44 49 53 59 66 65 75 60 49 43 40 36 35 35 36 38 39 42 40 42 44 47 49 55 57
17 14 17 20 19 17 18 18 26 33 37 35 33 34 40 48 53 48 43 43 38 38 42 50 59 67 59 55 45 37 31 31 36 39 40 39 42 41 39 41 44 49 54 55
19 13 17 22 22 23 19 22 22 18 17 17 18 21 24 27 34 37 35 33 36 37 46 52 59 58 55 51 39 31 33 32 33 38 41 43 46 45 42 41 42 45 48 51
27 28 25 26 26 21 16 10 5 6 10 13 13 17 28 13 6 8 8 12 14 15 26 37 41 36 38 35 27 29 32 32 29 36 40 41 43 43 40 42 44 41 43 47
Wind_Direction_850mb
193 278 248 240 298 180 137 167 145 172 168 185 172 153 145 138 131 115 119 130 138 136 135 153 183 187 195 214 209 213 217 210 226 236 264 281 243 238 238 241 244 250 254 265
12 341 347 38 19 9 91 108 51 145 123 160 148 143 141 136 128 113 104 107 110 117 122 126 136 153 175 197 217 229 240 236 224 224 245 273 274 261 240 233 239 249 253 253
297 284 356 22 343 323 10 282 139 157 181 154 146 152 155 143 136 129 122 115 110 108 106 106 117 127 138 154 162 180 210 221 226 223 212 262 264 261 272 254 261 257 254 256
205 354 50 258 322 53 76 37 86 115 145 149 151 153 154 145 137 132 132 125 123 122 116 110 111 112 117 118 121 125 125 137 174 185 185 217 244 237 241 267 275 280 265 253
107 90 297 316 2 17 44 355 161 131 142 148 135 122 122 145 144 137 131 129 123 129 133 124 116 110 110 112 112 112 105 106 127 152 206 224 248 259 247 254 278 279 273 276
106 123 169 276 289 14 118 58 152 152 152 144 144 147 162 153 146 139 140 138 135 132 132 137 126 122 117 108 109 108 101 95 105 122 132 139 214 231 249 262 268 274 260 270
80 149 303 264 308 321 121 229 172 167 162 156 155 149 153 153 150 151 146 145 146 146 144 148 147 159 153 148 305 44 74 109 235 239 226 200 184 191 249 231 164 136 139 105
68 82 218 343 329 197 255 157 166 171 164 160 144 153 151 153 154 154 152 155 163 166 158 146 168 228 239 266 285 285 281 277 271 266 269 266 257 261 261 262 247 200 156 205
157 208 265 341 18 314 208 161 156 163 167 163 154 157 161 156 155 158 164 166 171 185 175 185 272 306 313 289 251 268 278 276 270 269 267 267 267 258 254 252 257 261 254 252
65 323 352 81 76 57 144 159 164 161 161 166 160 163 162 161 163 165 166 168 171 183 198 236 273 287 294 311 321 300 230 238 253 256 262 264 267 270 272 269 265 272 278 276
345 294 112 129 112 104 109 131 145 157 165 166 165 165 168 168 166 168 172 177 192 216 231 216 212 229 218 74 70 103 118 124 171 210 247 270 274 267 271 280 285 287 291 294
215 193 216 175 155 142 138 142 148 160 171 177 178 174 173 171 175 178 182 195 216 225 214 194 186 168 156 148 134 120 106 96 81 60 50 18 297 299 302 292 288 285 286 286
141 1 278 298 189 174 168 163 166 170 173 173 177 180 179 177 177 177 189 203 203 192 189 187 178 166 145 135 124 110 79 55 40 30 22 13 1 347 325 320 306 296 292 290
283 298 243 359 184 194 189 177 178 182 187 193 191 186 187 184 180 190 190 181 186 184 183 183 180 169 159 147 120 99 80 57 40 29 21 16 11 5 358 351 344 333 322 311
264 264 261 264 278 236 206 184 176 176 180 182 187 188 192 194 204 203 186 178 175 190 196 189 183 183 178 167 142 104 75 46 35 28 20 15 10 6 1 357 351 346 341 335
242 253 269 257 239 278 206 190 183 180 185 188 190 196 203 210 202 203 200 201 211 221 216 217 204 204 198 186 174 133 34 18 11 6 5 2 0 360 358 357 354 351 348 343
228 235 254 255 228 208 199 183 188 189 200 200 201 208 210 211 207 209 215 222 226 227 220 241 221 218 210 201 198 209 3 6 355 355 356 355 356 355 353 350 348 348 346 344
236 233 250 242 204 194 195 213 223 214 172 155 181 213 222 217 215 218 224 223 218 219 227 230 220 230 225 210 200 216 238 338 345 342 348 348 350 352 351 351 350 348 346 344
155 175 196 214 201 201 190 191 206 215 224 236 225 201 198 200 222 228 224 222 222 220 231 227 227 223 225 224 212 217 227 259 322 323 333 344 345 345 348 350 350 348 348 346
182 184 197 233 215 185 198 200 209 222 234 244 248 234 243 249 233 258 244 240 239 252 253 239 227 225 226 225 224 229 234 252 277 302 299 322 336 341 342 342 343 345 344 342
211 213 234 242 247 251 268 248 280 250 252 257 266 249 246 250 248 247 239 242 247 251 245 240 229 227 226 223 226 226 230 244 269 297 306 300 315 327 331 333 335 339 339 338
213 229 252 242 268 272 260 263 281 282 277 278 259 259 264 263 257 252 251 254 257 245 238 239 231 226 229 222 224 227 227 241 263 285 298 304 303 314 319 322 325 329 335 335
244 246 237 238 245 251 256 271 266 268 267 277 275 276 272 274 270 268 266 264 261 245 238 237 231 228 227 221 225 230 231 244 260 277 290 295 302 308 311 313 317 321 329 331
232 233 229 226 225 235 248 271 277 280 280 276 269 266 266 266 265 269 274 274 263 261 246 240 234 223 227 221 226 230 240 250 260 275 289 292 295 303 304 309 314 314 321 327
197 215 214 220 225 245 254 271 287 291 292 290 284 280 280 268 266 268 270 271 266 255 241 235 220 214 229 222 223 229 242 258 264 273 284 290 294 300 302 302 311 317 318 320
208 223 217 223 236 252 260 289 297 300 308 311 313 309 301 285 271 266 268 268 260 257 239 241 222 209 220 220 222 239 252 259 267 269 278 285 294 296 298 303 308 313 317 319
222 219 225 227 229 236 277 284 290 343 359 0 346 343 340 322 320 313 276 281 279 240 207 208 210 206 198 206 229 244 249 265 272 280 283 285 294 292 290 298 300 302 314 319